MST,Max TemperatureF,Mean TemperatureF,Min TemperatureF,Max Dew PointF,MeanDew PointF,Min DewpointF,Max Humidity, Mean Humidity, Min Humidity, Max Sea Level PressureIn, Mean Sea Level PressureIn, Min Sea Level PressureIn, Max VisibilityMiles, Mean VisibilityMiles, Min VisibilityMiles, Max Wind SpeedMPH, Mean Wind SpeedMPH, Max Gust SpeedMPH,PrecipitationIn, CloudCover, Events, WindDirDegrees
2013-12-1,33,20,7,18,9,1,68,55,41,30.27,30.14,29.99,10,10,9,26,12,40,T,3,Snow,360
2013-12-2,35,30,24,21,18,14,88,67,45,30.13,29.83,29.57,10,10,3,30,10,42,T,6,Snow,326
2013-12-3,29,26,22,23,21,12,96,73,50,29.65,29.49,29.24,10,3,0,15,7,22,0.23,8,Fog-Snow,173
2013-12-4,26,9,-9,23,10,-15,92,81,69,29.85,29.41,29.10,10,3,0,21,9,31,0.27,7,Fog-Snow,9
2013-12-5,13,-3,-19,-5,-15,-23,79,61,42,30.02,29.90,29.76,10,10,10,12,4,14,T,0,,17
2013-12-6,7,-5,-17,-3,-10,-20,81,68,55,30.15,29.97,29.74,10,8,1,13,5,17,T,5,Snow,30
2013-12-7,9,0,-9,5,0,-13,88,80,71,30.06,29.73,29.50,10,4,1,15,4,17,0.03,8,Snow,176
2013-12-8,8,-1,-11,4,-2,-16,88,75,62,29.98,29.58,29.43,10,4,0,23,8,31,0.09,7,Fog-Snow,329
2013-12-9,2,-6,-15,-12,-15,-21,75,63,51,30.52,30.13,29.74,10,8,4,25,10,31,0.02,4,,334
2013-12-10,23,5,-14,6,1,-11,79,63,47,30.42,30.23,30.11,10,10,9,23,9,38,T,4,,349
2013-12-11,27,15,2,4,-3,-11,83,52,21,30.58,30.35,30.15,10,10,8,18,10,25,0.00,0,,7
2013-12-12,39,22,4,4,-3,-7,60,39,18,30.56,30.30,30.02,10,9,4,14,9,21,0.00,0,,10
2013-12-13,30,19,8,8,5,1,73,54,35,30.10,29.97,29.85,10,10,10,17,10,23,0.00,2,,358
2013-12-14,25,14,3,7,5,1,88,69,49,30.50,30.29,30.06,10,10,10,16,9,21,0.00,4,,354
2013-12-15,34,24,13,13,10,7,74,58,41,30.45,30.34,30.22,10,10,7,20,6,29,T,3,Snow,9
2013-12-16,37,26,15,14,9,1,61,48,35,30.43,30.31,30.22,10,10,10,22,9,31,0.00,0,,359
2013-12-17,40,26,11,10,6,2,54,39,24,30.52,30.33,30.17,10,10,10,16,7,23,0.00,0,,13
2013-12-18,45,33,20,11,3,-1,45,31,16,30.12,29.89,29.59,10,10,10,17,9,22,0.00,1,,17
2013-12-19,37,28,18,19,11,8,69,51,32,29.61,29.54,29.41,10,10,10,21,6,27,0.00,4,,7
2013-12-20,28,17,5,19,14,1,88,76,63,29.70,29.61,29.53,10,7,0,15,5,19,0.03,6,Snow,5
2013-12-21,19,10,1,9,4,-5,87,72,56,29.81,29.62,29.52,10,9,2,15,9,21,T,6,Snow,347
2013-12-22,18,10,1,9,3,-4,87,70,53,30.17,30.02,29.78,10,6,1,22,10,33,0.03,7,Snow,354
2013-12-23,24,19,13,14,10,7,84,71,57,30.37,30.27,30.09,10,7,1,21,8,29,0.08,7,Snow,325
2013-12-24,28,12,-4,19,12,-7,86,72,57,30.39,30.17,30.00,10,5,0,30,13,41,0.03,7,Snow,334
2013-12-25,27,13,-2,1,-4,-9,75,54,32,30.61,30.49,30.38,10,10,10,13,7,17,0.00,0,,20
2013-12-26,33,18,2,11,3,-7,80,56,31,30.55,30.40,30.29,10,10,10,15,9,22,0.00,0,,24
2013-12-27,40,26,12,16,12,9,80,59,37,30.45,30.29,30.13,10,10,10,18,9,23,0.00,0,,16
2013-12-28,36,24,11,16,13,8,88,68,47,30.09,29.95,29.84,10,10,6,17,8,21,T,3,Snow,360
2013-12-29,23,15,6,15,5,-6,83,59,34,30.19,30.03,29.84,10,10,2,22,9,34,T,4,Snow,353
2013-12-30,27,18,8,8,5,0,73,54,35,30.32,30.19,30.04,10,10,10,23,12,32,T,4,,346
2013-12-31,31,23,15,19,15,4,77,60,42,30.25,30.11,29.95,10,7,1,21,10,29,0.02,8,Snow,354